Time,TemperatureF,DewpointF,PressureIn,WindDirection,WindDirectionDegrees,WindSpeedMPH,WindSpeedGustMPH,Humidity,HourlyPrecipIn,Conditions,Clouds,dailyrainin,SolarRadiationWatts/m^2,SoftwareType,DateUTC
2013-10-28 00:13:00,32.0,29.0,-100.00,NE,37,5.0,14.0,90,0.00,,,0.00,0.000000,,2013-10-28 05:13:00,
2013-10-28 00:22:00,32.0,29.0,-100.00,NE,37,5.0,14.0,90,0.00,,,0.00,0.000000,,2013-10-28 05:22:00,
2013-10-28 00:34:00,32.0,29.0,-100.00,NE,37,5.0,14.0,90,0.00,,,0.00,0.000000,,2013-10-28 05:34:00,
2013-10-28 01:12:00,31.0,26.0,-100.00,ENE,57,9.0,18.0,83,0.00,,,0.00,0.000000,,2013-10-28 06:12:00,
2013-10-28 01:22:00,31.0,26.0,-100.00,ENE,57,9.0,18.0,83,0.00,,,0.00,0.000000,,2013-10-28 06:22:00,
2013-10-28 01:32:00,31.0,26.0,-100.00,ENE,57,9.0,18.0,83,0.00,,,0.00,0.000000,,2013-10-28 06:32:00,
2013-10-28 02:12:00,30.0,23.0,-100.00,NE,50,7.0,13.0,74,0.00,,,0.00,0.000000,,2013-10-28 07:12:00,
2013-10-28 02:22:00,30.0,23.0,-100.00,NE,50,7.0,13.0,74,0.00,,,0.00,0.000000,,2013-10-28 07:22:00,
2013-10-28 02:32:00,30.0,23.0,-100.00,NE,50,7.0,13.0,74,0.00,,,0.00,0.000000,,2013-10-28 07:32:00,
2013-10-28 03:12:00,29.0,21.0,-100.00,NE,40,7.0,12.0,71,0.00,,,0.00,0.000000,,2013-10-28 08:12:00,
2013-10-28 03:22:00,29.0,21.0,-100.00,NE,40,7.0,12.0,71,0.00,,,0.00,0.000000,,2013-10-28 08:22:00,
2013-10-28 03:32:00,29.0,21.0,-100.00,NE,40,7.0,12.0,71,0.00,,,0.00,0.000000,,2013-10-28 08:32:00,
2013-10-28 04:11:00,28.0,20.0,-100.00,NE,52,8.0,14.0,70,0.00,,,0.00,0.000000,,2013-10-28 09:11:00,
2013-10-28 04:22:00,28.0,20.0,-100.00,NE,52,8.0,14.0,70,0.00,,,0.00,0.000000,,2013-10-28 09:22:00,
2013-10-28 04:33:00,28.0,20.0,-100.00,NE,52,8.0,14.0,70,0.00,,,0.00,0.000000,,2013-10-28 09:33:00,
2013-10-28 05:13:00,27.0,19.0,-100.00,NE,44,7.0,15.0,71,0.00,,,0.00,0.000000,,2013-10-28 10:13:00,
2013-10-28 05:23:00,27.0,19.0,-100.00,NE,44,7.0,15.0,71,0.00,,,0.00,0.000000,,2013-10-28 10:23:00,
2013-10-28 05:33:00,27.0,19.0,-100.00,NE,44,7.0,15.0,71,0.00,,,0.00,0.000000,,2013-10-28 10:33:00,
2013-10-28 06:12:00,27.0,19.0,-100.00,NE,41,5.0,10.0,72,0.00,,,0.00,0.000000,,2013-10-28 11:12:00,
2013-10-28 06:22:00,27.0,19.0,-100.00,NE,41,5.0,10.0,72,0.00,,,0.00,0.000000,,2013-10-28 11:22:00,
2013-10-28 06:33:00,27.0,19.0,-100.00,NE,41,5.0,10.0,72,0.00,,,0.00,0.000000,,2013-10-28 11:33:00,
2013-10-28 07:12:00,27.0,19.0,-100.00,NE,54,6.0,9.0,70,0.00,,,0.00,0.000000,,2013-10-28 12:12:00,
2013-10-28 07:21:00,27.0,19.0,-100.00,NE,54,6.0,9.0,70,0.00,,,0.00,0.000000,,2013-10-28 12:21:00,
2013-10-28 07:32:00,27.0,19.0,-100.00,NE,54,6.0,9.0,70,0.00,,,0.00,0.000000,,2013-10-28 12:32:00,
2013-10-28 08:11:00,28.0,19.0,-100.00,NE,46,5.0,10.0,68,0.00,,,0.00,1.000000,,2013-10-28 13:11:00,
2013-10-28 08:22:00,28.0,19.0,-100.00,NE,46,5.0,10.0,68,0.00,,,0.00,1.000000,,2013-10-28 13:22:00,
2013-10-28 08:32:00,28.0,19.0,-100.00,NE,46,5.0,10.0,68,0.00,,,0.00,1.000000,,2013-10-28 13:32:00,
2013-10-28 09:11:00,29.0,19.0,-100.00,NE,54,5.0,10.0,67,0.00,,,0.00,23.000000,,2013-10-28 14:11:00,
2013-10-28 09:22:00,29.0,19.0,-100.00,NE,54,5.0,10.0,67,0.00,,,0.00,23.000000,,2013-10-28 14:22:00,
2013-10-28 09:32:00,29.0,19.0,-100.00,NE,54,5.0,10.0,67,0.00,,,0.00,23.000000,,2013-10-28 14:32:00,
2013-10-28 10:11:00,30.0,20.0,-100.00,ENE,66,6.0,9.0,66,0.00,,,0.00,76.000000,,2013-10-28 15:11:00,
2013-10-28 10:22:00,30.0,20.0,-100.00,ENE,66,6.0,9.0,66,0.00,,,0.00,76.000000,,2013-10-28 15:22:00,
2013-10-28 10:33:00,30.0,20.0,-100.00,ENE,66,6.0,9.0,66,0.00,,,0.00,76.000000,,2013-10-28 15:33:00,
2013-10-28 11:13:00,31.0,19.0,-100.00,ENE,57,6.0,12.0,61,0.00,,,0.00,146.000000,,2013-10-28 16:13:00,
2013-10-28 11:23:00,31.0,19.0,-100.00,ENE,57,6.0,12.0,61,0.00,,,0.00,146.000000,,2013-10-28 16:23:00,
2013-10-28 11:32:00,31.0,19.0,-100.00,ENE,57,6.0,12.0,61,0.00,,,0.00,146.000000,,2013-10-28 16:32:00,
2013-10-28 12:12:00,31.0,19.0,-100.00,NE,48,6.0,14.0,60,0.00,,,0.00,177.000000,,2013-10-28 17:12:00,
2013-10-28 12:23:00,31.0,19.0,-100.00,NE,48,6.0,14.0,60,0.00,,,0.00,177.000000,,2013-10-28 17:23:00,
2013-10-28 12:33:00,31.0,19.0,-100.00,NE,48,6.0,14.0,60,0.00,,,0.00,177.000000,,2013-10-28 17:33:00,
2013-10-28 13:12:00,33.0,20.0,-100.00,ENE,75,6.0,11.0,58,0.00,,,0.00,255.000000,,2013-10-28 18:12:00,
2013-10-28 13:22:00,33.0,20.0,-100.00,ENE,75,6.0,11.0,58,0.00,,,0.00,255.000000,,2013-10-28 18:22:00,
2013-10-28 13:32:00,33.0,20.0,-100.00,ENE,75,6.0,11.0,58,0.00,,,0.00,255.000000,,2013-10-28 18:32:00,
2013-10-28 14:11:00,35.0,19.0,-100.00,NE,53,4.0,11.0,52,0.00,,,0.00,376.000000,,2013-10-28 19:11:00,
2013-10-28 14:22:00,35.0,19.0,-100.00,NE,53,4.0,11.0,52,0.00,,,0.00,376.000000,,2013-10-28 19:22:00,
2013-10-28 14:33:00,35.0,19.0,-100.00,NE,53,4.0,11.0,52,0.00,,,0.00,376.000000,,2013-10-28 19:33:00,
2013-10-28 15:12:00,36.0,18.0,-100.00,ENE,71,5.0,10.0,48,0.00,,,0.00,450.000000,,2013-10-28 20:12:00,
2013-10-28 15:22:00,36.0,18.0,-100.00,ENE,71,5.0,10.0,48,0.00,,,0.00,450.000000,,2013-10-28 20:22:00,
2013-10-28 15:32:00,36.0,18.0,-100.00,ENE,71,5.0,10.0,48,0.00,,,0.00,450.000000,,2013-10-28 20:32:00,
2013-10-28 16:11:00,36.0,19.0,-100.00,North,355,3.0,6.0,49,0.00,,,0.00,398.000000,,2013-10-28 21:11:00,
2013-10-28 16:21:00,36.0,19.0,-100.00,North,355,3.0,6.0,49,0.00,,,0.00,398.000000,,2013-10-28 21:21:00,
2013-10-28 16:34:00,36.0,19.0,-100.00,North,355,3.0,6.0,49,0.00,,,0.00,398.000000,,2013-10-28 21:34:00,
2013-10-28 17:13:00,35.0,18.0,-100.00,NNE,26,4.0,8.0,50,0.00,,,0.00,195.000000,,2013-10-28 22:13:00,
2013-10-28 17:23:00,35.0,18.0,-100.00,NNE,26,4.0,8.0,50,0.00,,,0.00,195.000000,,2013-10-28 22:23:00,
2013-10-28 17:34:00,35.0,18.0,-100.00,NNE,26,4.0,8.0,50,0.00,,,0.00,195.000000,,2013-10-28 22:34:00,
2013-10-28 18:12:00,32.0,18.0,-100.00,NE,42,3.0,7.0,55,0.00,,,0.00,46.000000,,2013-10-28 23:12:00,
2013-10-28 18:22:00,32.0,18.0,-100.00,NE,42,3.0,7.0,55,0.00,,,0.00,46.000000,,2013-10-28 23:22:00,
2013-10-28 18:34:00,32.0,18.0,-100.00,NE,42,3.0,7.0,55,0.00,,,0.00,46.000000,,2013-10-28 23:34:00,
2013-10-28 19:11:00,28.0,20.0,-100.00,ENE,63,0.0,3.0,71,0.00,,,0.00,3.000000,,2013-10-29 00:11:00,
2013-10-28 19:22:00,28.0,20.0,-100.00,ENE,63,0.0,3.0,71,0.00,,,0.00,3.000000,,2013-10-29 00:22:00,
2013-10-28 19:32:00,28.0,20.0,-100.00,ENE,63,0.0,3.0,71,0.00,,,0.00,3.000000,,2013-10-29 00:32:00,
2013-10-28 20:11:00,25.0,20.0,-100.00,SSW,213,1.0,2.0,80,0.00,,,0.00,0.000000,,2013-10-29 01:11:00,
2013-10-28 20:21:00,25.0,20.0,-100.00,SSW,213,1.0,2.0,80,0.00,,,0.00,0.000000,,2013-10-29 01:21:00,
2013-10-28 20:31:00,25.0,20.0,-100.00,SSW,213,1.0,2.0,80,0.00,,,0.00,0.000000,,2013-10-29 01:31:00,
2013-10-28 21:11:00,24.0,21.0,-100.00,SSW,195,0.0,2.0,87,0.00,,,0.00,0.000000,,2013-10-29 02:11:00,
2013-10-28 21:21:00,24.0,21.0,-100.00,SSW,195,0.0,2.0,87,0.00,,,0.00,0.000000,,2013-10-29 02:21:00,
2013-10-28 21:34:00,24.0,21.0,-100.00,SSW,195,0.0,2.0,87,0.00,,,0.00,0.000000,,2013-10-29 02:34:00,
2013-10-28 21:37:00,-999.0,-99.9,-100.00,SSW,198,0.0,0.0,90,0.00,,,0.00,0.000000,,2013-10-29 02:37:00,
2013-10-28 22:14:00,22.0,20.0,-100.00,SSW,198,0.0,0.0,90,0.00,,,0.00,0.000000,,2013-10-29 03:14:00,
2013-10-28 22:27:00,22.0,20.0,-100.00,SSW,198,0.0,0.0,90,0.00,,,0.00,0.000000,,2013-10-29 03:27:00,
2013-10-28 22:37:00,20.0,18.0,-100.00,SSW,196,0.0,0.0,91,0.00,,,0.00,0.000000,,2013-10-29 03:37:00,
2013-10-28 23:14:00,20.0,18.0,-100.00,SSW,196,0.0,0.0,91,0.00,,,0.00,0.000000,,2013-10-29 04:14:00,
2013-10-28 23:24:00,20.0,18.0,-100.00,SSW,196,0.0,0.0,91,0.00,,,0.00,0.000000,,2013-10-29 04:24:00,